Location: Arboucave
(43.6130°N, 0.4343°W)
Time: 23:54:33
(UTC+00:00)

BREEZE-M DEB (TANK) - Pass Details

Date: 17 November 2025
Orbit: 325 x 14899 km, 49.3° (Epoch: 08 December)

Event Time Altitude Azimuth Distance (km) Brightness Sun altitude
Rises 19:08:14 0° 297° (WNW) 10,573 10.2 -27.7°
Reaches altitude 10° 19:18:46 10° 298° (WNW) 7,094 9.2 -29.6°
Maximum altitude 19:34:19 70° 219° (SW) 1,201 4.4 -32.4°
Enters shadow 19:34:34 69° 202° (SSW) 1,170 4.3 -32.4°
